Location: Bishopstone
(51.0167°N, 1.9000°W)
Time: 07:07:45
(UTC+00:00)

Nadezhda 3 Rocket - Pass Details

Date: 16 September 2019
Orbit: 958 x 999 km, 82.9° (Epoch: 22 October)

Event Time Altitude Azimuth Distance (km) Brightness Sun altitude
Exits shadow 21:25:19 67° 101° (E) 1,039 3.8 -26.9°
Maximum altitude 21:25:24 68° 95° (E) 1,038 3.9 -26.9°
Drops below altitude 10° 21:31:34 10° 14° (NNE) 2,721 6.7 -27.6°
Sets 21:34:06 0° 12° (NNE) 3,678 7.5 -27.9°
